This is the latest recevied weather packets stored in our database for station/object N7MLR. If no packets are shown the sender has not sent any weather packets the latest 10 day(s).
| Time | Temp. | Humidity | Pressure | Rain* | Wind** | Luminosity | Snow |
|---|---|---|---|---|---|---|---|
| 1777841315 | 25.56° C | 40% | 1019 hPa | 0 mm | - | 610 W/m² | - |
| 1777841012 | 25.56° C | 41% | 1019.2 hPa | 0 mm | - | 641 W/m² | - |
| 1777840709 | 25.56° C | 38% | 1019.2 hPa | 0 mm | - | 633 W/m² | - |
| 1777840407 | 25.56° C | 37% | 1019.1 hPa | 0 mm | - | 644 W/m² | - |
| 1777840104 | 25.56° C | 42% | 1019.4 hPa | 0 mm | - | 663 W/m² | - |
| 1777839802 | 25° C | 42% | 1019.8 hPa | 0 mm | - | 679 W/m² | - |
| 1777839500 | 25° C | 43% | 1019.5 hPa | 0 mm | - | 692 W/m² | - |
| 1777839196 | 25° C | 43% | 1019.8 hPa | 0 mm | - | 662 W/m² | - |
| 1777838894 | 25.56° C | 40% | 1020.1 hPa | 0 mm | - | 724 W/m² | - |
| 1777838589 | 25° C | 42% | 1019.9 hPa | 0 mm | - | 723 W/m² | - |
| 1777838287 | 25° C | 42% | 1020 hPa | 0 mm | - | 725 W/m² | - |
| 1777837984 | 25° C | 45% | 1019.9 hPa | 0 mm | - | 640 W/m² | - |
| 1777837681 | 25° C | 44% | 1020.3 hPa | 0 mm | - | 473 W/m² | - |
| 1777837376 | 24.44° C | 43% | 1020.1 hPa | 0 mm | - | 782 W/m² | - |
| 1777837073 | 25° C | 40% | 1020.2 hPa | 0 mm | - | 682 W/m² | - |
| 1777836769 | 25° C | 43% | 1020.4 hPa | 0 mm | - | 768 W/m² | - |
| 1777836465 | 25.56° C | 41% | 1020.5 hPa | 0 mm | - | 772 W/m² | - |
| 1777836160 | 25.56° C | 41% | 1020.6 hPa | 0 mm | - | 794 W/m² | - |
| 1777835857 | 25° C | 41% | 1020.5 hPa | 0 mm | - | 791 W/m² | - |
| 1777835554 | 25.56° C | 40% | 1020.8 hPa | 0 mm | - | 784 W/m² | - |
| 1777835251 | 25° C | 40% | 1020.8 hPa | 0 mm | - | 766 W/m² | - |
| 1777834948 | 25° C | 40% | 1020.8 hPa | 0 mm | - | 753 W/m² | - |
| 1777834645 | 25° C | 39% | 1020.7 hPa | 0 mm | - | 737 W/m² | - |
| 1777834341 | 24.44° C | 40% | 1020.8 hPa | 0 mm | - | 735 W/m² | - |
| 1777834035 | 24.44° C | 39% | 1020.8 hPa | 0 mm | - | 758 W/m² | - |
* Rain latest hour (hover to see other rain measurements)
** Current wind speed in m/s (hover to see current wind gust speed)